User: anonymous   Login
Location: Songkhla
(7.2000°N, 100.6000°E)
Time: 04:00:49
(UTC+07:00)
Language:

SO-50 - Orbit

View from above orbital plane
View from above orbital plane
View from above satellite
View from above satellite

Ground track
Ground track

The orbit data is extracted from the following two-line orbital elements,

1 27607U 02058C   21212.41562607  .00000060  00000-0  29173-4 0  9998
2 27607  64.5537 203.9100 0045995   6.8378 353.3341 14.75770358   990
Epoch (UTC): 31 July 2021 09:58:30
Eccentricity: 0.0045995
inclination: 64.5537°
perigee height: 610 km
apogee height: 675 km
right ascension of ascending node: 203.9100°
argument of perigee: 6.8378°
revolutions per day: 14.75770358
mean anomaly at epoch: 353.3341°
orbit number at epoch: 99

The dashed part of the orbit path shows where the satellite is in the earth's shadow,  

DLR